DW0051 Weather Reports


time (UTC)temp
C
wind
direction
speed
KPH
gust
KPH
rain 1hr
cm
rain 24hr
cm
rain mn
cm
humidity
%
barometer
mb
20260507065537 15 182 3.2 17.7 0.00 0.00 0.00 65 1013.1
20260507064538 15 197 3.2 17.7 0.00 0.00 0.00 67 1013.1
20260507063517 14 212 1.6 12.9 0.00 0.00 0.00 68 1013.1
20260507062537 14 183 3.2 11.3 0.00 0.00 0.00 69 1013.1
20260507061517 13 0.0 17.7 0.00 0.00 0.00 69 1012.9
20260507060517 13 262 3.2 11.3 0.00 0.00 0.00 69 1012.9
20260507055517 13 0.0 0.0 0.00 0.00 0.00 69 1012.9
20260507054518 13 247 0.0 8.0 0.00 0.00 0.00 69 1012.7
20260507053517 13 0.0 9.7 0.00 0.00 0.00 69 1012.5
20260507052517 13 0.0 4.8 0.00 0.00 0.00 70 1012.5
20260507051517 13 0.0 0.0 0.00 0.00 0.00 71 1012.4
20260507050517 13 178 0.0 11.3 0.00 0.00 0.00 70 1012.2
20260507045517 13 164 3.2 11.3 0.00 0.00 0.00 71 1012.1
20260507044518 13 228 3.2 11.3 0.00 0.00 0.00 71 1011.9
20260507043517 13 0.0 8.0 0.00 0.00 0.00 71 1011.9
20260507042517 13 204 4.8 8.0 0.00 0.00 0.00 71 1011.9
20260507041517 13 0.0 11.3 0.00 0.00 0.00 71 1011.7
20260507040517 13 0.0 8.0 0.00 0.00 0.00 71 1011.6
20260507035516 13 210 8.0 14.5 0.00 0.00 0.00 71 1011.5
20260507034516 13 231 3.2 12.9 0.00 0.00 0.00 71 1011.5
20260507033537 13 222 1.6 14.5 0.00 0.00 0.00 71 1011.5
20260507032517 13 0.0 6.4 0.00 0.00 0.00 71 1011.4
20260507031517 13 185 3.2 8.0 0.00 0.00 0.00 70 1011.5
20260507030516 13 216 0.0 11.3 0.00 0.00 0.00 69 1011.5
20260507025517 13 220 3.2 6.4 0.00 0.00 0.00 69 1011.3
20260507024517 13 205 0.0 3.2 0.00 0.00 0.00 69 1011.3
20260507023517 13 177 0.0 6.4 0.00 0.00 0.00 69 1011.2
20260507022517 13 0.0 8.0 0.00 0.00 0.00 70 1011.1
20260507021517 13 240 0.0 4.8 0.00 0.00 0.00 70 1011.2
20260507020516 14 0.0 6.4 0.00 0.00 0.00 70 1011.1
20260507015516 14 0.0 0.0 0.00 0.00 0.00 71 1010.9
20260507014517 14 256 0.0 1.6 0.00 0.00 0.00 71 1010.8
20260507013516 14 253 0.0 9.7 0.00 0.00 0.00 71 1010.8
20260507012516 14 0.0 11.3 0.00 0.00 0.00 72 1010.6
20260507011516 14 216 1.6 9.7 0.00 0.00 0.00 72 1010.7
20260507010517 14 0.0 17.7 0.00 0.00 0.00 73 1010.3
20260507005516 14 0.0 8.0 0.00 0.00 0.00 73 1010.2
20260507004516 14 188 3.2 14.5 0.00 0.00 0.00 73 1010.2
20260507003537 15 0.0 6.4 0.00 0.00 0.00 73 1010.2
20260507002517 15 196 1.6 14.5 0.00 0.00 0.00 72 1010.2
20260507001517 15 219 3.2 16.1 0.00 0.00 0.00 72 1010.2
20260507000537 15 0.0 14.5 0.00 0.00 0.00 71 1010.2
20260506235518 15 227 1.6 11.3 0.00 0.00 0.00 71 1010.1
20260506234516 15 168 4.8 14.5 0.00 0.00 0.00 72 1009.9
20260506233517 15 218 1.6 25.7 0.00 0.00 0.00 72 1009.7
20260506232537 15 230 8.0 20.9 0.00 0.00 0.00 72 1009.7
20260506231516 15 209 4.8 14.5 0.00 0.00 0.00 72 1009.6
20260506230517 16 195 4.8 14.5 0.00 0.00 0.00 73 1009.3
20260506225516 16 201 11.3 24.1 0.00 0.00 0.00 75 1009.1
20260506224517 16 234 6.4 14.5 0.00 0.00 0.00 75 1009.0
20260506223516 16 187 3.2 9.7 0.00 0.00 0.00 75 1008.9
20260506222516 16 188 4.8 14.5 0.00 0.00 0.00 73 1008.8
20260506221516 16 226 4.8 19.3 0.00 0.00 0.00 71 1008.6
20260506220516 16 203 9.7 19.3 0.00 0.00 0.00 69 1008.3
20260506215536 17 233 6.4 17.7 0.00 0.00 0.00 68 1007.9
20260506214516 17 219 3.2 16.1 0.00 0.00 0.00 67 1007.5
20260506213517 17 210 9.7 17.7 0.00 0.00 0.00 67 1007.4
20260506212537 17 221 6.4 11.3 0.00 0.00 0.00 68 1007.1
20260506211517 15 233 4.8 14.5 0.00 0.00 0.00 70 1007.0
20260506210516 15 273 0.0 6.4 0.00 0.00 0.00 73 1006.5
20260506205536 15 0.0 0.0 0.00 0.00 0.00 72 1006.2
20260506204516 16 0.0 0.0 0.00 0.00 0.00 71 1006.1
20260506203517 16 0.0 0.0 0.00 0.00 0.00 70 1005.8
20260506202517 16 0.0 0.0 0.00 0.00 0.00 69 1005.7
20260506201516 16 0.0 0.0 0.00 0.00 0.00 69 1005.6
20260506200516 16 0.0 0.0 0.00 0.00 0.00 68 1005.6
20260506195516 17 0.0 0.0 0.00 0.00 0.00 67 1005.4
20260506194516 17 0.0 0.0 0.00 0.00 0.00 66 1005.2
20260506193516 17 0.0 0.0 0.00 0.00 0.00 64 1005.0
20260506192536 18 0.0 4.8 0.00 0.00 0.00 63 1005.0
20260506191557 18 0.0 0.0 0.00 0.00 0.00 62 1004.8
20260506190516 18 0.0 0.0 0.00 0.00 0.00 60 1004.7
20260506185517 19 0.0 0.0 0.00 0.00 0.00 58 1004.6
20260506184516 20 0.0 0.0 0.00 0.00 0.00 55 1004.4
20260506183517 21 0.0 0.0 0.00 0.00 0.00 53 1004.2
20260506182516 21 243 4.8 9.7 0.00 0.00 0.00 51 1004.2
20260506181538 21 222 0.0 6.4 0.00 0.00 0.00 50 1004.2
20260506180517 21 206 0.0 8.0 0.00 0.00 0.00 50 1004.2
20260506175516 21 217 1.6 9.7 0.00 0.00 0.00 50 1004.0
20260506174537 22 222 0.0 3.2 0.00 0.00 0.00 50 1004.0
20260506173516 22 0.0 9.7 0.00 0.00 0.00 49 1004.1
20260506172537 22 0.0 4.8 0.00 0.00 0.00 48 1004.0
20260506171517 22 0.0 4.8 0.00 0.00 0.00 47 1004.0
20260506170517 22 217 8.0 12.9 0.00 0.00 0.00 47 1004.1
20260506165516 22 212 4.8 20.9 0.00 0.00 0.00 46 1004.1
20260506164517 23 215 0.0 9.7 0.00 0.00 0.00 47 1004.2
20260506163517 23 57 0.0 6.4 0.00 0.00 0.00 47 1004.2
20260506162517 23 212 1.6 6.4 0.00 0.00 0.00 47 1004.2
20260506161517 23 210 6.4 16.1 0.00 0.00 0.00 46 1004.3
20260506160557 24 137 3.2 16.1 0.00 0.00 0.00 45 1004.4
20260506155537 25 244 4.8 16.1 0.00 0.00 0.00 41 1004.3
20260506154517 26 214 1.6 6.4 0.00 0.00 0.00 37 1004.2
20260506153516 26 214 1.6 6.4 0.00 0.00 0.00 37 1004.2
20260506152517 26 169 0.0 3.2 0.00 0.00 0.00 35 1004.2
20260506151516 26 201 4.8 14.5 0.00 0.00 0.00 35 1004.3
20260506150516 26 0.0 0.0 0.00 0.00 0.00 37 1004.3
20260506145517 26 222 1.6 6.4 0.00 0.00 0.00 36 1004.5
20260506144517 27 234 3.2 8.0 0.00 0.00 0.00 34 1004.3
20260506143516 27 0.0 9.7 0.00 0.00 0.00 35 1004.4
20260506142516 27 204 1.6 14.5 0.00 0.00 0.00 34 1004.4
20260506141516 27 207 4.8 14.5 0.00 0.00 0.00 32 1004.4
20260506140516 27 0.0 9.7 0.00 0.00 0.00 31 1004.4
20260506135516 27 188 4.8 14.5 0.00 0.00 0.00 33 1004.5
20260506134516 27 231 1.6 16.1 0.00 0.00 0.00 34 1004.6
20260506133517 27 217 1.6 8.0 0.00 0.00 0.00 36 1004.7
20260506132516 26 232 0.0 17.7 0.00 0.00 0.00 36 1004.8
20260506131516 27 0.0 30.6 0.00 0.00 0.00 35 1004.9
20260506130516 27 0.0 19.3 0.00 0.00 0.00 37 1005.0
20260506125516 26 61 0.0 19.3 0.00 0.00 0.00 39 1005.2
20260506124516 26 188 3.2 14.5 0.00 0.00 0.00 41 1005.2
20260506123516 26 121 1.6 16.1 0.00 0.00 0.00 39 1005.5
20260506122517 26 74 3.2 17.7 0.00 0.00 0.00 39 1005.5
20260506121516 26 151 14.5 27.4 0.00 0.00 0.00 38 1005.7
20260506120516 25 53 3.2 16.1 0.00 0.00 0.00 40 1005.8
20260506115516 25 0.0 19.3 0.00 0.00 0.00 42 1006.0
20260506114536 25 138 0.0 16.1 0.00 0.00 0.00 42 1006.1
20260506113516 26 77 3.2 9.7 0.00 0.00 0.00 41 1006.2
20260506112516 24 157 4.8 16.1 0.00 0.00 0.00 44 1006.4
20260506111517 25 32 8.0 29.0 0.00 0.00 0.00 43 1006.5
20260506110516 25 67 1.6 14.5 0.00 0.00 0.00 45 1006.6
20260506105516 24 54 3.2 20.9 0.00 0.00 0.00 45 1006.8
20260506104516 25 73 9.7 20.9 0.00 0.00 0.00 45 1007.1
20260506103516 24 60 11.3 24.1 0.00 0.00 0.00 47 1006.9
20260506102515 24 45 3.2 12.9 0.00 0.00 0.00 47 1007.2
20260506101535 24 57 9.7 19.3 0.00 0.00 0.00 47 1007.3
20260506100515 24 44 8.0 19.3 0.00 0.00 0.00 46 1007.4
20260506095537 23 108 6.4 14.5 0.00 0.00 0.00 46 1007.6
20260506094515 24 133 4.8 12.9 0.00 0.00 0.00 46 1007.9
20260506093515 25 102 3.2 22.5 0.00 0.00 0.00 43 1007.8
20260506092556 23 324 0.0 11.3 0.00 0.00 0.00 46 1008.0
20260506091535 23 245 1.6 24.1 0.00 0.00 0.00 45 1008.1
20260506090515 23 116 1.6 11.3 0.00 0.00 0.00 46 1008.2
20260506085516 23 164 4.8 11.3 0.00 0.00 0.00 45 1008.2
20260506084516 23 0.0 11.3 0.00 0.00 0.00 45 1008.1
20260506083515 23 124 4.8 11.3 0.00 0.00 0.00 45 1008.3
20260506082536 24 103 1.6 14.5 0.00 0.00 0.00 43 1008.2
20260506081515 25 59 0.0 8.0 0.00 0.00 0.00 44 1008.3
20260506080515 24 92 0.0 6.4 0.00 0.00 0.00 45 1008.3
20260506073518 23 298 0.0 1.6 0.00 0.00 0.00 53 1008.6
20260506072518 22 0.0 0.0 0.00 0.00 0.00 50 1008.9
20260506071518 23 0.0 0.0 0.00 0.00 0.00 50 1009.0
20260506070518 22 0.0 0.0 0.00 0.00 0.00 53 1009.1